Terminal Aerodrome Forecast
Issued by NWS Cleveland, OH

Home | Current Version | Previous Version | Graphics & Text | Print | Product List | Glossary On
Versions: 1 2 3 4 5 6 7 8 9 10 11 12 13 14 15 16 17 18 19 20 21 22 23 24 25
786
FTUS41 KCLE 280740 AAB
TAFTOL
TAF AMD
KTOL 280740Z 2808/2906 23007KT P6SM BKN150
     FM282200 17008KT P6SM OVC090
     FM290300 14005KT 6SM -SHRA OVC020=

USA.gov is the U.S. government's official web portal to all federal, state and local government web resources and services.